TimeEDT,TemperatureF,Dew PointF,Humidity,Sea Level PressureIn,VisibilityMPH,Wind Direction,Wind SpeedMPH,Gust SpeedMPH,PrecipitationIn,Events,Conditions,WindDirDegrees,DateUTC
12:15 AM,60.8,60.8,100,30.10,10.0,Calm,Calm,-,N/A,,Scattered Clouds,0,2013-05-20 04:15:00
12:35 AM,60.8,60.8,100,30.10,10.0,ENE,3.5,-,N/A,,Clear,70,2013-05-20 04:35:00
12:55 AM,60.8,60.8,100,30.10,10.0,East,4.6,-,N/A,,Scattered Clouds,80,2013-05-20 04:55:00
1:15 AM,60.8,60.8,100,30.09,10.0,ENE,3.5,-,N/A,,Mostly Cloudy,70,2013-05-20 05:15:00
1:35 AM,60.8,60.8,100,30.08,10.0,ENE,3.5,-,N/A,,Partly Cloudy,60,2013-05-20 05:35:00
1:55 AM,60.8,60.8,100,30.08,10.0,NE,3.5,-,N/A,,Mostly Cloudy,50,2013-05-20 05:55:00
2:15 AM,60.8,59.0,94,30.08,10.0,NE,3.5,-,N/A,,Mostly Cloudy,50,2013-05-20 06:15:00
2:35 AM,60.8,59.0,94,30.08,10.0,Calm,Calm,-,N/A,,Mostly Cloudy,0,2013-05-20 06:35:00
2:55 AM,60.8,59.0,94,30.08,10.0,Calm,Calm,-,N/A,,Mostly Cloudy,0,2013-05-20 06:55:00
3:15 AM,59.0,59.0,100,30.08,10.0,Calm,Calm,-,N/A,,Mostly Cloudy,0,2013-05-20 07:15:00
3:35 AM,59.0,59.0,100,30.08,10.0,Calm,Calm,-,N/A,,Overcast,0,2013-05-20 07:35:00
4:15 AM,59.0,59.0,100,30.08,10.0,ENE,3.5,-,N/A,,Overcast,70,2013-05-20 08:15:00
4:35 AM,59.0,59.0,100,30.08,10.0,NE,3.5,-,N/A,,Scattered Clouds,50,2013-05-20 08:35:00
4:55 AM,59.0,57.2,94,30.08,10.0,NE,3.5,-,N/A,,Scattered Clouds,40,2013-05-20 08:55:00
5:35 AM,60.8,59.0,94,30.10,10.0,Calm,Calm,-,N/A,,Overcast,0,2013-05-20 09:35:00
5:55 AM,59.0,59.0,100,30.10,5.0,East,4.6,-,N/A,Rain,Heavy Rain,100,2013-05-20 09:55:00
6:15 AM,59.0,59.0,100,30.11,6.0,NNE,6.9,-,N/A,Rain,Light Rain,30,2013-05-20 10:15:00
6:35 AM,59.0,59.0,100,30.11,7.0,Calm,Calm,-,N/A,Rain,Rain,0,2013-05-20 10:35:00
6:55 AM,60.8,59.0,94,30.11,9.0,Calm,Calm,-,N/A,Rain,Light Rain,0,2013-05-20 10:55:00
7:15 AM,59.0,59.0,100,30.12,9.0,ESE,4.6,-,N/A,,Light Drizzle,110,2013-05-20 11:15:00
7:35 AM,60.8,59.0,94,30.13,10.0,East,3.5,-,N/A,,Light Drizzle,80,2013-05-20 11:35:00
8:15 AM,60.8,60.8,100,30.12,10.0,Calm,Calm,-,N/A,,Mostly Cloudy,0,2013-05-20 12:15:00
8:35 AM,60.8,60.8,100,30.14,10.0,ENE,4.6,-,N/A,,Mostly Cloudy,70,2013-05-20 12:35:00
8:55 AM,60.8,60.8,100,30.15,10.0,NNE,3.5,-,N/A,,Overcast,20,2013-05-20 12:55:00
9:15 AM,62.6,60.8,94,30.17,9.0,SE,5.8,-,N/A,Rain,Rain,130,2013-05-20 13:15:00
9:35 AM,62.6,62.6,100,30.16,10.0,Calm,Calm,-,N/A,,Light Drizzle,0,2013-05-20 13:35:00
10:15 AM,62.6,60.8,94,30.17,10.0,Calm,Calm,-,N/A,,Mostly Cloudy,0,2013-05-20 14:15:00
10:35 AM,62.6,60.8,94,30.16,10.0,ENE,3.5,-,N/A,,Mostly Cloudy,70,2013-05-20 14:35:00
10:55 AM,64.4,60.8,88,30.16,10.0,ENE,4.6,-,N/A,,Mostly Cloudy,70,2013-05-20 14:55:00
11:35 AM,68.0,60.8,78,30.15,10.0,ENE,4.6,-,N/A,,Scattered Clouds,70,2013-05-20 15:35:00
11:55 AM,69.8,60.8,73,30.15,10.0,ENE,3.5,-,N/A,,Scattered Clouds,70,2013-05-20 15:55:00
12:15 PM,69.8,60.8,73,30.15,10.0,ENE,3.5,-,N/A,,Mostly Cloudy,70,2013-05-20 16:15:00
12:35 PM,71.6,62.6,73,30.14,10.0,Variable,3.5,-,N/A,,Mostly Cloudy,0,2013-05-20 16:35:00
12:55 PM,71.6,62.6,73,30.14,10.0,ENE,4.6,-,N/A,,Scattered Clouds,70,2013-05-20 16:55:00
1:15 PM,73.4,60.8,65,30.13,10.0,Calm,Calm,-,N/A,,Mostly Cloudy,0,2013-05-20 17:15:00
1:35 PM,75.2,59.0,57,30.14,10.0,Calm,Calm,-,N/A,,Scattered Clouds,0,2013-05-20 17:35:00
1:55 PM,75.2,60.8,61,30.13,10.0,SW,3.5,-,N/A,,Mostly Cloudy,220,2013-05-20 17:55:00
2:15 PM,77.0,62.6,61,30.12,10.0,SW,4.6,-,N/A,,Scattered Clouds,220,2013-05-20 18:15:00
2:55 PM,75.2,62.6,65,30.12,10.0,WNW,6.9,-,N/A,,Scattered Clouds,300,2013-05-20 18:55:00
3:15 PM,77.0,64.4,65,30.11,10.0,WNW,4.6,-,N/A,,Partly Cloudy,300,2013-05-20 19:15:00
3:35 PM,78.8,64.4,61,30.11,10.0,WNW,5.8,-,N/A,,Clear,300,2013-05-20 19:35:00
3:55 PM,77.0,62.6,61,30.09,10.0,WNW,5.8,-,N/A,,Clear,290,2013-05-20 19:55:00
4:15 PM,78.8,62.6,57,30.08,10.0,West,5.8,-,N/A,,Clear,280,2013-05-20 20:15:00
4:35 PM,78.8,62.6,57,30.07,10.0,SW,6.9,-,N/A,,Clear,230,2013-05-20 20:35:00
4:55 PM,78.8,62.6,57,30.07,10.0,West,3.5,-,N/A,,Clear,280,2013-05-20 20:55:00
5:15 PM,78.8,62.6,57,30.07,10.0,WNW,6.9,-,N/A,,Clear,290,2013-05-20 21:15:00
5:35 PM,78.8,62.6,57,30.07,10.0,Variable,4.6,-,N/A,,Clear,0,2013-05-20 21:35:00
5:55 PM,78.8,62.6,57,30.07,10.0,WNW,3.5,-,N/A,,Clear,290,2013-05-20 21:55:00
6:15 PM,78.8,64.4,61,30.06,10.0,West,3.5,-,N/A,,Clear,280,2013-05-20 22:15:00
6:35 PM,78.8,64.4,61,30.05,10.0,West,5.8,-,N/A,,Clear,280,2013-05-20 22:35:00
6:55 PM,77.0,64.4,65,30.04,10.0,West,3.5,-,N/A,,Clear,260,2013-05-20 22:55:00
7:15 PM,75.2,66.2,73,30.04,10.0,Calm,Calm,-,N/A,,Clear,0,2013-05-20 23:15:00
7:35 PM,71.6,68.0,88,30.05,10.0,Calm,Calm,-,N/A,,Clear,0,2013-05-20 23:35:00
7:55 PM,69.8,66.2,88,30.05,10.0,Calm,Calm,-,N/A,,Clear,0,2013-05-20 23:55:00
8:15 PM,69.8,64.4,83,30.06,10.0,Calm,Calm,-,N/A,,Clear,0,2013-05-21 00:15:00
8:35 PM,66.2,64.4,94,30.06,10.0,Calm,Calm,-,N/A,,Clear,0,2013-05-21 00:35:00
8:55 PM,64.4,64.4,100,30.06,10.0,Calm,Calm,-,N/A,,Clear,0,2013-05-21 00:55:00
9:15 PM,64.4,62.6,94,30.06,10.0,NNE,3.5,-,N/A,,Clear,30,2013-05-21 01:15:00
9:35 PM,62.6,62.6,100,30.07,9.0,Calm,Calm,-,N/A,,Clear,0,2013-05-21 01:35:00
10:15 PM,64.4,62.6,94,30.07,10.0,NE,4.6,-,N/A,,Clear,50,2013-05-21 02:15:00
10:35 PM,64.4,62.6,94,30.07,10.0,ENE,6.9,-,N/A,,Clear,70,2013-05-21 02:35:00
10:55 PM,64.4,62.6,94,30.07,10.0,ENE,4.6,-,N/A,,Clear,60,2013-05-21 02:55:00
11:15 PM,64.4,60.8,88,30.07,10.0,ENE,5.8,-,N/A,,Clear,70,2013-05-21 03:15:00
11:35 PM,64.4,60.8,88,30.06,10.0,ENE,5.8,-,N/A,,Clear,60,2013-05-21 03:35:00
11:55 PM,62.6,60.8,94,30.06,10.0,NE,4.6,-,N/A,,Clear,50,2013-05-21 03:55:00